Weather in Balyktakh

Russia / Sakha (Yakutia) Republic     63°05′03″N   130°25′07″E
temp.,
°C
wind,
m/s
gust,
m/s
humid.,
%
clouds,
%
prec.,
mm/h
press.,
hPa
HPBL,
m
5 march, fri
fri500:00−38w259856 0.0 102398
03:00−37w379678 0.0 1025208
06:00−40w259894 0.0 102588
09:00−37w369495 0.0 1026276
12:00−32w359273 0.0 1027369
15:00−30w369181 0.0 1027459
18:00−33wnw2298100 0.0 102820
21:00−35w229992 0.0 102919
6 march, sat
sat600:00−36w239924 0.0 102829
03:00−38w229936 0.0 102918
06:00−39w129930 0.0 102918
09:00−36wnw129629 0.0 1028120
12:00−30wnw118881 0.0 1027350
15:00−28w118790 0.0 1025420
18:00−33ene119692 0.0 102519
21:00−35e129646 0.0 102519
7 march, sun
sun700:00−36e22970 0.0 102419
03:00−37e22980 0.0 102419
06:00−38e23980 0.0 102323
09:00−35e24964 0.0 1022146
12:00−28ese238840 0.0 1020365
15:00−26e349070 0.0 1018454
18:00−29ene359697 0.0 101891
21:00−29e479593 0.0 1017236
8 march, mon
mon800:00−30ene499586 0.1 1015259
03:00−31e489591 0.1 1013292
06:00−31ene4895100 0.1 1012308
09:00−30ene4895100 0.1 1011301
12:00−27ene4795100 0.1 1009330
15:00−23e3694100 0.1 1008378
18:00−26ene239799 0.0 100854
21:00−27ene249798 0.0 100983
9 march, tue
tue900:00−28ene229795 0.0 101020
03:00−29ne119790 0.0 101119
06:00−30nne119982 0.0 101219
09:00−26nw119787 0.1 101397
12:00−21w129197 0.0 1014373
15:00−19w238999 0.1 1014460
18:00−23sse1198100 0.0 101520
21:00−22e239899 0.1 101563